This is the latest recevied weather packets stored in our database for station/object KE5YIM-13. If no packets are shown the sender has not sent any weather packets the latest 10 day(s).
| Time | Temp. | Humidity | Pressure | Rain* | Wind** | Luminosity | Snow |
|---|---|---|---|---|---|---|---|
| 1777935209 | 16.11° C | 61% | 1010.6 hPa | 0 mm | - | 40 W/m² | - |
| 1777934907 | 16.11° C | 60% | 1010.5 hPa | 0 mm | - | 42 W/m² | - |
| 1777934604 | 16.11° C | 60% | 1010.6 hPa | 0 mm | - | 49 W/m² | - |
| 1777934300 | 16.67° C | 59% | 1010.7 hPa | 0 mm | - | 61 W/m² | - |
| 1777933996 | 16.67° C | 59% | 1010.7 hPa | 0 mm | - | 66 W/m² | - |
| 1777933693 | 17.22° C | 58% | 1010.5 hPa | 0 mm | - | 108 W/m² | - |
| 1777933389 | 17.22° C | 56% | 1010.6 hPa | 0 mm | - | 125 W/m² | - |
| 1777933088 | 17.22° C | 56% | 1010.8 hPa | 0 mm | - | 137 W/m² | - |
| 1777932784 | 17.22° C | 56% | 1010.7 hPa | 0 mm | - | 149 W/m² | - |
| 1777932481 | 17.22° C | 56% | 1010.7 hPa | 0 mm | - | 164 W/m² | - |
| 1777932178 | 17.22° C | 57% | 1010.9 hPa | 0 mm | - | 180 W/m² | - |
| 1777931875 | 17.78° C | 56% | 1010.8 hPa | 0 mm | - | 196 W/m² | - |
| 1777931571 | 17.78° C | 54% | 1010.7 hPa | 0 mm | - | 206 W/m² | - |
| 1777931267 | 17.78° C | 54% | 1010.9 hPa | 0 mm | - | 223 W/m² | - |
| 1777930964 | 17.78° C | 54% | 1010.9 hPa | 0 mm | - | 241 W/m² | - |
| 1777930661 | 17.78° C | 55% | 1010.8 hPa | 0 mm | - | 261 W/m² | - |
| 1777930357 | 17.78° C | 55% | 1010.7 hPa | 0 mm | - | 226 W/m² | - |
| 1777930054 | 18.33° C | 53% | 1010.8 hPa | 0 mm | - | 154 W/m² | - |
| 1777929751 | 18.33° C | 51% | 1010.7 hPa | 0 mm | - | 213 W/m² | - |
| 1777929449 | 18.33° C | 51% | 1010.8 hPa | 0 mm | - | 312 W/m² | - |
| 1777929144 | 18.89° C | 50% | 1010.7 hPa | 0 mm | - | 330 W/m² | - |
| 1777928842 | 18.89° C | 50% | 1010.6 hPa | 0 mm | - | 341 W/m² | - |
| 1777928539 | 18.89° C | 49% | 1010.3 hPa | 0 mm | - | 365 W/m² | - |
| 1777928236 | 18.89° C | 50% | 1010.4 hPa | 0 mm | - | 381 W/m² | - |
| 1777927934 | 18.89° C | 49% | 1010.3 hPa | 0 mm | - | 401 W/m² | - |
* Rain latest hour (hover to see other rain measurements)
** Current wind speed in m/s (hover to see current wind gust speed)